Weather History for Fairbanks Eiels, AK

Change the Weather History Date:

Sunday, September 8, 2013

  Actual Average Record
Temperature  
Mean Temperature 48 °F -  
Max Temperature 51 °F 59 °F 74 °F (1989)
Min Temperature 46 °F 37 °F 22 °F (1952)
Degree Days  
Heating Degree Days 16    
Moisture  
Dew Point 47 °F    
Average Humidity 96    
Maximum Humidity 100    
Minimum Humidity 93    
Precipitation  
Precipitation 0.24 in - - ()
Sea Level Pressure  
Sea Level Pressure 29.56 in    
Wind  
Wind Speed 3 mph (SW)    
Max Wind Speed 10 mph    
Max Gust Speed -    
Visibility 10 miles    
Events Rain    
Averages and records for this station are not official NWS values.
T = Trace of Precipitation, MM = Missing Value Source: NWS Daily Summary

Daily Weather History Graph

Daily Weather History Graph

Search for Another Location

Airport:

Trip Planner

Search our weather history database for the weather conditions in past years. The results will help you decide how hot, cold, wet, or windy it might be!

Date:

Astronomy

Sep. 08, 2013 Rise Set
Actual Time 6:51 AM AKDT 8:38 PM AKDT
Civil Twilight 5:59 AM AKDT 9:30 PM AKDT
Nautical Twilight 4:50 AM AKDT 10:37 PM AKDT
Astronomical Twilight 3:12 AM AKDT 12:11 AM AKDT
Moon 11:55 AM AKDT (9/8) 8:37 PM AKDT (9/8)
Length of Visible Light 15h 30m
Length of Day
13h 47m
Waxing Crescent, 12% of the Moon is Illuminated
Sep 8
Waxing Crescent
Sep 12
First Quarter
Sep 19
Full
Sep 26
Last Quarter
Oct 4
New

Hourly Weather History & Observations

Time (AKDT) Temp. Windchill Dew Point Humidity Pressure Visibility Wind Dir Wind Speed Gust Speed Precip Events Conditions
12:04 AM 48.2 °F - 46.4 °F 93% 29.55 in 10.0 mi South 5.8 mph - N/A Rain Light Rain
12:39 AM 48.2 °F - 46.4 °F 93% 29.54 in 9.0 mi ENE 1.2 mph - N/A Rain Light Rain
12:44 AM 48.2 °F - 46.4 °F 93% 29.54 in 9.0 mi South 4.6 mph - N/A Rain Light Rain
12:49 AM 48.2 °F - 46.4 °F 93% 29.54 in 10.0 mi South 3.5 mph - N/A Rain Light Rain
12:58 AM 48.0 °F - 46.9 °F 96% 29.53 in 10.0 mi SSE 1.2 mph - 0.02 in Rain Light Rain
1:01 AM 48.2 °F - 46.4 °F 93% 29.53 in 10.0 mi SW 1.2 mph - N/A   Overcast
1:16 AM 48.2 °F - 46.4 °F 93% 29.53 in 10.0 mi Calm Calm - N/A   Mostly Cloudy
1:26 AM 48.2 °F - 46.4 °F 93% 29.52 in 10.0 mi SSE 2.3 mph - N/A   Mostly Cloudy
1:54 AM 48.2 °F - 46.4 °F 93% 29.52 in 10.0 mi SSE 4.6 mph - N/A   Overcast
1:58 AM 47.5 °F - 46.4 °F 96% 29.52 in 10.0 mi SSE 5.8 mph - 0.00 in   Overcast
2:58 AM 47.5 °F - 46.6 °F 97% 29.50 in 10.0 mi South 3.5 mph - N/A   Overcast
3:58 AM 47.3 °F - 46.6 °F 97% 29.49 in 10.0 mi South 2.3 mph - N/A   Overcast
4:07 AM 48.2 °F - 46.4 °F 93% 29.49 in 10.0 mi Calm Calm - N/A Rain Light Rain
4:12 AM 48.2 °F - 46.4 °F 93% 29.49 in 10.0 mi Calm Calm - N/A   Overcast
4:58 AM 47.5 °F - 46.8 °F 97% 29.49 in 10.0 mi South 5.8 mph - 0.00 in   Overcast
5:08 AM 48.2 °F - 46.4 °F 93% 29.48 in 10.0 mi South 3.5 mph - N/A   Overcast
5:18 AM 48.2 °F - 46.4 °F 93% 29.48 in 10.0 mi South 2.3 mph - N/A   Overcast
5:20 AM 48.2 °F - 46.4 °F 93% 29.48 in 10.0 mi ENE 1.2 mph - N/A Rain Light Rain
5:40 AM 46.4 °F - 46.4 °F 100% 29.48 in 10.0 mi SSW 2.3 mph - N/A Rain Light Rain
5:55 AM 48.2 °F - 46.4 °F 93% 29.47 in 10.0 mi Calm Calm - N/A Rain Light Rain
5:58 AM 47.3 °F - 46.6 °F 97% 29.47 in 10.0 mi Calm Calm - 0.02 in Rain Light Rain
6:03 AM 48.2 °F - 46.4 °F 93% 29.47 in 10.0 mi Calm Calm - N/A Rain Light Rain
6:13 AM 48.2 °F - 46.4 °F 93% 29.47 in 9.0 mi Calm Calm - N/A Rain Light Rain
6:18 AM 48.2 °F - 46.4 °F 93% 29.47 in 8.0 mi Calm Calm - N/A Rain Light Rain
6:28 AM 46.4 °F - 46.4 °F 100% 29.47 in 10.0 mi Calm Calm - N/A Rain Light Rain
6:53 AM 46.4 °F - 46.4 °F 100% 29.47 in 10.0 mi Calm Calm - N/A Rain Light Rain
6:58 AM 46.9 °F - 46.2 °F 97% 29.47 in 10.0 mi NW 2.3 mph - 0.02 in Rain Light Rain
7:03 AM 46.4 °F - 46.4 °F 100% 29.47 in 6.0 mi North 1.2 mph - N/A Rain Light Rain
7:43 AM 46.4 °F - 46.4 °F 100% 29.46 in 9.0 mi Calm Calm - N/A Rain Light Rain
7:48 AM 46.4 °F - 46.4 °F 100% 29.46 in 9.0 mi NW 2.3 mph - N/A Rain Light Rain
7:58 AM 46.6 °F - 45.9 °F 97% 29.46 in 7.0 mi North 1.2 mph - 0.05 in Rain Light Rain
8:03 AM 46.4 °F - 46.4 °F 100% 29.46 in 8.0 mi NW 2.3 mph - N/A Rain Light Rain
8:33 AM 46.4 °F 45.2 °F 46.4 °F 100% 29.46 in 9.0 mi Variable 3.5 mph - N/A Rain Light Rain
8:53 AM 46.4 °F - 46.4 °F 100% 29.46 in 7.0 mi Calm Calm - N/A Rain Light Rain
8:58 AM 46.8 °F - 45.9 °F 97% 29.47 in 5.0 mi Calm Calm - 0.03 in Rain Light Rain
9:08 AM 46.4 °F - 46.4 °F 100% 29.47 in 9.0 mi Variable 2.3 mph - N/A Rain Light Rain
9:13 AM 46.4 °F - 46.4 °F 100% 29.47 in 10.0 mi Calm Calm - N/A Rain Light Rain
9:43 AM 46.4 °F - 46.4 °F 100% 29.48 in 10.0 mi Variable 1.2 mph - N/A Rain Light Rain
9:58 AM 46.8 °F - 45.7 °F 96% 29.48 in 10.0 mi NNW 1.2 mph - 0.02 in Rain Light Rain
10:43 AM 46.4 °F 45.2 °F 46.4 °F 100% 29.49 in 10.0 mi West 3.5 mph - N/A Rain Light Rain
10:58 AM 47.5 °F - 46.4 °F 96% 29.50 in 10.0 mi Calm Calm - 0.01 in Rain Light Rain
10:59 AM 48.2 °F - 46.4 °F 93% 29.50 in 10.0 mi WSW 3.5 mph - N/A   Overcast
11:49 AM 48.2 °F - 48.2 °F 100% 29.51 in 10.0 mi Calm Calm - N/A   Overcast
11:58 AM 48.7 °F - 47.7 °F 96% 29.51 in 10.0 mi WSW 2.3 mph - 0.00 in   Overcast
12:58 PM 50.7 °F - 49.3 °F 95% 29.54 in 10.0 mi Variable 3.5 mph - N/A   Overcast
1:03 PM 51.8 °F - 50.0 °F 94% 29.54 in 10.0 mi WSW 3.5 mph - N/A   Overcast
1:33 PM 51.8 °F - 50.0 °F 94% 29.55 in 10.0 mi West 3.5 mph - N/A   Overcast
1:58 PM 51.8 °F - 50.2 °F 94% 29.56 in 10.0 mi Variable 6.9 mph - N/A   Overcast
2:58 PM 51.6 °F - 50.0 °F 94% 29.60 in 10.0 mi Variable 5.8 mph - N/A   Overcast
3:32 PM 51.8 °F - 50.0 °F 94% 29.61 in 10.0 mi WSW 9.2 mph - N/A Rain Light Rain
3:46 PM 50.0 °F - 48.2 °F 94% 29.62 in 10.0 mi WSW 10.4 mph - N/A   Overcast
3:58 PM 50.4 °F - 48.9 °F 95% 29.62 in 10.0 mi WSW 5.8 mph - 0.00 in   Overcast
4:21 PM 50.0 °F - 48.2 °F 94% 29.63 in 10.0 mi Variable 5.8 mph - N/A Rain Light Rain
4:58 PM 50.4 °F - 48.9 °F 95% 29.65 in 10.0 mi WSW 8.1 mph - 0.01 in Rain Light Rain
5:58 PM 50.2 °F - 49.1 °F 96% 29.67 in 10.0 mi West 8.1 mph - 0.04 in Rain Light Rain
6:28 PM 50.0 °F - 48.2 °F 94% 29.68 in 10.0 mi Variable 4.6 mph - N/A Rain Light Rain
6:58 PM 49.8 °F - 48.4 °F 95% 29.70 in 10.0 mi Variable 2.3 mph - 0.01 in Rain Light Rain
7:24 PM 50.0 °F - 48.2 °F 94% 29.70 in 10.0 mi NW 1.2 mph - N/A   Overcast
7:54 PM 50.0 °F - 48.2 °F 94% 29.72 in 10.0 mi SW 1.2 mph - N/A   Overcast
7:58 PM 49.3 °F - 47.8 °F 95% 29.72 in 10.0 mi Variable 2.3 mph - 0.01 in   Overcast
8:08 PM 50.0 °F - 48.2 °F 94% 29.72 in 10.0 mi Variable 2.3 mph - N/A   Overcast
8:58 PM 48.4 °F - 46.9 °F 95% 29.74 in 10.0 mi Variable 4.6 mph - N/A   Overcast
9:58 PM 47.5 °F - 46.4 °F 96% 29.76 in 10.0 mi Variable 5.8 mph - N/A   Scattered Clouds
10:28 PM 48.2 °F - 46.4 °F 93% 29.76 in 10.0 mi Variable 2.3 mph - N/A   Overcast
10:53 PM 46.4 °F 44.3 °F 46.4 °F 100% 29.77 in 10.0 mi SSE 4.6 mph - N/A   Overcast
10:58 PM 46.6 °F - 45.9 °F 97% 29.77 in 10.0 mi SSE 4.6 mph - N/A   Overcast
11:23 PM 46.4 °F 45.2 °F 46.4 °F 100% 29.78 in 10.0 mi Variable 3.5 mph - N/A   Mostly Cloudy
11:53 PM 46.4 °F 45.2 °F 46.4 °F 100% 29.79 in 10.0 mi Variable 3.5 mph - N/A   Overcast
11:58 PM 46.8 °F - 46.0 °F 97% 29.79 in 10.0 mi Variable 4.6 mph - N/A   Overcast